Tracking 27420 objects as of 28-May-2023
HD Live streaming from Space Station
objects crossing your sky now

STARLINK-3634

Track STARLINK-3634 now!
10-day predictions
STARLINK-3634 is classified as:


NORAD ID: 51798
Int'l Code: 2022-017AG
Perigee: 546.1 km
Apogee: 547.7 km
Inclination: 53.2 °
Period: 95.4 minutes
Semi major axis: 6917 km
RCS: Unknown
Launch date: February 25, 2022
Source: United States (US)
Launch site: AIR FORCE WESTERN TEST RANGE (AFWTR)
Your satellite tracking list
Your tracking list is empty




NASA's NSSDC Master Catalog

Two Line Element Set (TLE):
1 51798U 22017AG  23147.95994937  .00000789  00000-0  67652-4 0  9998
2 51798  53.2159 233.3993 0001166  72.9065 287.2055 15.08838118 70472
Source of the keplerian elements: AFSPC